Temp_Advection
nan nan nan nan nan nan nan nan nan nan nan nan nan nan nan nan nan nan nan nan nan nan nan nan nan nan nan nan nan nan nan nan nan nan nan nan nan nan nan nan nan nan nan nan nan nan nan nan nan nan nan nan nan nan
nan -0 -0 -0 0 0 1 1 1 1 2 1 0 -0 -0 -0 -0 -0 -0 0 0 0 -0 -0 0 0 0 0 -0 -0 -0 -0 -0 -0 -0 -0 -0 -0 -0 0 -0 0 -1 0 0 0 -1 -0 -1 -1 -1 -1 -0 nan
nan 0 0 -0 0 0 1 0 0 0 1 0 0 0 0 0 0 -0 -0 -0 -0 0 -1 -0 -0 -0 0 1 0 -0 -0 -0 -0 -0 0 -0 -0 -0 -0 -1 0 -3 -2 -1 0 -1 -1 -0 -1 -1 -1 -1 -1 nan
nan 0 -0 -0 -0 0 0 0 0 0 0 0 0 0 0 -0 0 -0 -0 -0 -1 0 -0 -0 -0 0 0 1 1 0 -0 -0 -0 -0 -0 -0 -0 -0 -0 -1 -1 -0 -1 -3 -1 -1 -2 -1 -2 -2 -2 -1 -0 nan
nan 0 -0 -0 -0 -0 0 0 0 0 0 0 0 0 -0 -0 -0 -0 0 -0 -0 -0 -0 -2 -0 -0 -0 0 0 0 0 0 0 -0 0 -0 -0 -0 -0 -0 -0 -1 -0 -0 -0 -2 -1 -2 -3 -2 -1 -1 0 nan
nan 0 0 -0 -0 -0 -0 0 0 0 0 0 0 0 -0 -0 -0 0 0 0 0 -0 0 -0 -1 -0 -1 -2 -1 -0 -0 -0 -0 -0 -0 -0 -0 -1 -0 -0 -1 -1 -1 -1 -1 -2 -2 -2 -1 -1 -1 -0 0 nan
nan 0 -0 0 -0 -0 -0 -0 -0 0 0 0 0 -0 -0 -0 -0 -0 -0 0 0 0 -0 -1 -2 -2 -1 -2 -2 -1 -0 -0 -0 -0 -0 -0 -1 -1 -0 -0 -0 -0 -1 -1 -0 -1 -1 -0 -0 -0 -0 0 0 nan
nan 1 0 0 -0 -0 -1 -0 -0 -0 0 0 0 -0 -0 -0 -0 -0 -0 -0 0 0 -1 -1 -1 -3 -1 -1 -1 -1 -1 -0 -0 -0 -0 -0 -0 -1 -0 -0 -0 -0 -2 -1 -1 -0 -1 -1 -0 0 0 0 0 nan
nan 1 1 0 0 -0 -1 -1 -1 -0 -0 -0 0 -0 -0 -0 -0 0 -0 -0 -0 -1 -1 -1 0 -1 -2 -1 -1 -1 -0 -0 -0 -0 -0 -0 -0 -0 -0 0 -0 -0 -0 -2 -2 -1 -0 -0 0 0 0 1 1 nan
nan 1 1 0 0 0 -0 -1 -1 -1 -0 -0 -0 -0 -0 -0 -0 0 -0 -0 -1 -1 -1 -0 0 -0 -1 -0 -0 -1 -0 -0 -0 -0 -1 -0 -0 -0 -0 -0 -0 -0 -0 -0 -1 -1 -1 -0 0 0 0 1 1 nan
nan 1 1 0 0 0 -0 -0 -1 -1 -1 -1 -0 -0 -0 -0 -0 -0 -1 -1 -1 -0 -0 -0 0 0 -0 0 -0 -0 -0 -0 -0 -0 -0 -0 -0 -0 -0 0 0 0 0 -0 -0 -0 -0 0 0 1 1 1 1 nan
nan 1 1 1 0 0 -0 0 -0 -1 -1 -0 -0 -0 -0 -0 -1 -3 -0 -0 -0 -0 0 -0 -0 0 -0 -0 -0 -0 -0 -0 -0 -1 -0 -0 0 -0 -0 -0 0 0 0 0 0 0 0 0 0 0 1 1 1 nan
nan 1 0 1 0 0 0 -0 0 -0 -0 0 0 -0 -0 -1 -1 -0 0 0 0 -0 0 0 -0 -0 -0 -0 -0 -0 -0 -0 -0 -1 -0 0 -0 -0 -0 -0 0 0 0 0 0 0 0 0 0 0 0 1 1 nan
nan 1 0 1 1 0 0 -0 -0 -0 0 0 0 0 -0 0 -0 -0 -0 -0 -0 0 1 1 0 -0 -0 -0 -0 -0 -0 -1 -1 -0 -0 -0 -0 -0 -0 -0 -0 -0 -0 0 0 0 0 0 0 0 0 0 1 nan
nan 1 0 0 1 1 0 0 -0 -0 -0 0 0 1 0 -0 -0 -0 -1 -0 0 0 1 0 0 -0 0 -0 -0 -0 -1 -0 -0 -0 -0 -0 -0 -0 -0 -0 -0 -0 -0 0 0 0 0 0 -0 -0 0 0 0 nan
nan 1 0 1 2 1 1 0 -0 -0 0 0 1 -0 -0 -0 -0 -0 -0 0 0 0 -0 -0 -0 0 -0 0 -0 0 0 -0 -0 -0 -0 -0 -0 -0 -0 -0 -0 -0 -0 0 0 0 0 0 -0 -0 0 0 0 nan
nan 0 -0 4 1 0 1 0 -0 0 0 0 0 -0 -0 -0 -0 -0 0 0 0 -0 -0 0 0 0 0 -0 -0 -0 -0 -0 -0 0 0 0 -0 -0 -0 -0 -0 -0 -0 0 0 0 -0 0 0 0 -0 -0 0 nan
nan 1 2 2 1 1 1 0 0 0 0 1 0 0 1 0 0 0 1 1 0 0 -1 0 -0 -0 -0 -0 -0 -0 -1 -0 0 0 -0 0 0 -0 -0 -0 -0 -0 -0 0 0 0 0 0 0 -0 -0 0 0 nan
nan 1 2 2 1 1 0 0 0 0 1 0 0 1 1 1 1 1 1 1 1 0 0 -0 -0 -1 -1 -1 -1 -0 0 0 0 0 0 0 0 -0 -0 -0 -0 -0 -0 0 0 0 0 0 0 0 -0 0 0 nan
nan 0 1 2 1 0 0 0 0 1 0 0 1 1 0 1 1 1 1 1 1 0 0 -0 -2 -2 -1 -0 0 1 0 0 0 0 -0 0 0 -0 -0 -0 -0 0 0 0 0 0 0 0 0 0 0 0 0 nan
nan 2 2 2 1 0 0 1 1 0 0 0 0 0 0 1 1 1 1 1 0 0 -1 -4 -2 -0 0 1 1 1 0 0 0 0 0 0 -0 -0 -0 -0 -0 0 0 0 0 0 0 0 0 0 0 0 0 nan
nan 3 2 1 0 0 2 2 0 1 0 0 0 0 0 0 0 0 1 0 -1 -2 -1 -0 1 1 1 1 1 0 0 0 0 0 0 0 -0 -0 -0 -0 -0 0 0 0 0 -0 0 0 0 0 0 0 0 nan
nan 3 1 -0 0 2 1 1 0 0 0 0 0 -0 0 0 0 1 0 -1 -1 -1 0 1 1 1 1 1 0 0 0 0 0 0 0 0 -0 -0 -0 -0 -0 0 0 0 0 0 0 0 -0 -0 0 0 -0 nan
nan 1 0 1 2 -0 1 1 0 0 -0 -0 -0 -0 0 0 -0 0 -0 -1 -1 0 1 1 1 1 0 0 0 0 0 0 0 0 0 0 0 0 -0 -0 -0 0 0 0 0 0 0 0 -0 0 0 -0 -0 nan
nan 0 1 -0 0 -1 -0 0 0 -0 -0 -0 -0 0 0 -0 -0 0 -0 -1 -0 0 0 0 -0 0 0 0 0 0 0 0 0 0 0 0 0 0 0 0 0 0 0 0 0 0 0 0 -0 -0 -0 0 -0 nan
nan 1 1 -1 -0 -0 -0 -1 -1 -0 0 -0 0 -0 -0 -0 -0 0 -0 -1 -0 -1 -1 -0 0 0 0 0 0 0 0 0 0 0 0 0 0 0 0 0 0 0 0 0 0 0 0 0 -0 -0 -0 -0 -0 nan
nan 0 0 0 -0 -1 -0 -0 -0 -0 -0 0 0 -0 -0 -0 -0 -0 -0 -0 -0 -0 0 1 1 0 0 0 0 0 0 0 0 0 0 0 0 0 0 0 0 0 0 0 0 0 0 -0 -0 -0 -0 0 -0 nan
nan 0 0 0 0 0 -0 -0 -0 0 0 0 -1 -0 -0 -0 0 -0 0 0 0 0 0 0 0 0 1 1 0 0 0 0 0 0 0 0 0 0 0 0 0 0 0 0 0 0 -0 -0 -0 -0 -0 -0 -0 nan
nan 0 0 -0 0 0 0 0 0 0 0 0 -0 -0 0 0 0 0 0 0 0 1 1 0 0 0 1 1 0 0 0 0 0 0 0 0 0 0 0 0 0 0 0 0 0 0 -0 -0 -0 -0 -0 -0 -0 nan
nan 0 0 0 0 -0 -0 0 0 0 0 0 0 0 0 0 0 0 0 0 1 1 1 0 0 0 0 0 0 -0 -0 0 0 0 0 0 0 0 0 0 0 0 0 0 -0 -0 -0 -0 -0 -0 -0 -0 -0 nan
nan -0 -1 -1 -0 -0 0 0 0 0 0 0 0 0 0 0 0 0 0 0 1 0 0 0 0 0 0 0 -0 -0 -0 0 0 0 0 0 0 0 0 0 0 0 0 -0 -0 -0 -0 -0 -0 -0 -0 -0 0 nan
nan -0 -0 -0 -0 0 0 0 0 -0 0 -0 -0 0 0 0 0 0 0 0 0 0 0 0 0 0 0 -0 0 0 0 0 0 0 0 0 0 0 0 0 0 0 -0 -0 -0 -0 -0 -0 -0 -0 -0 -0 -0 nan
nan nan nan nan nan nan nan nan nan nan nan nan nan nan nan nan nan nan nan nan nan nan nan nan nan nan nan nan nan nan nan nan nan nan nan nan nan nan nan nan nan nan nan nan nan nan nan nan nan nan nan nan nan nan
Wind_Speed
25 27 29 31 32 33 33 34 36 38 37 34 26 22 19 16 13 9 3 4 8 5 17 6 8 8 6 11 4 16 11 4 4 6 3 4 3 3 1 3 3 6 7 5 4 3 6 5 3 8 4 7 8 8
25 26 28 30 33 34 34 36 37 40 38 33 23 18 19 17 15 9 8 8 11 9 10 16 5 6 6 13 13 11 5 5 4 3 3 4 3 4 5 2 3 2 5 2 3 2 3 11 6 12 10 9 9 14
25 26 27 29 32 34 35 36 37 40 40 33 23 15 17 19 12 7 7 10 20 3 9 5 3 6 6 19 15 7 5 6 6 11 3 3 4 3 4 3 4 12 17 4 3 8 12 14 19 19 18 12 8 9
25 27 27 28 31 33 35 36 37 39 40 33 25 15 14 17 15 8 4 10 22 6 3 4 7 4 7 26 26 13 19 18 17 16 6 3 2 7 4 3 5 6 14 13 4 9 18 10 28 29 23 11 3 3
25 27 28 28 30 32 35 36 37 38 40 34 26 13 13 13 13 7 6 10 24 10 2 10 6 4 13 28 21 6 8 12 10 4 2 2 3 5 3 3 4 12 6 5 4 25 13 20 34 28 18 9 1 8
22 27 28 29 30 31 33 35 36 37 39 35 26 11 9 11 12 5 3 3 22 11 2 4 7 7 26 36 21 9 10 6 3 4 4 4 5 9 3 2 7 27 25 21 13 32 34 32 28 19 13 5 3 9
21 24 29 29 30 31 32 34 35 36 38 34 24 9 7 10 10 6 4 11 14 6 4 7 12 14 24 25 18 12 8 6 4 3 4 4 10 8 3 5 26 32 33 34 20 27 13 9 11 6 6 6 7 13
22 23 26 30 29 30 31 32 34 35 36 32 20 8 3 9 6 8 6 12 11 4 5 3 5 13 22 12 10 14 9 5 6 4 4 4 5 7 3 20 28 31 34 19 28 19 13 11 7 3 6 7 13 18
23 23 24 29 29 30 30 31 32 34 34 29 14 5 3 4 4 6 3 8 11 10 5 4 2 4 19 11 8 8 7 3 5 2 3 4 4 6 11 24 26 30 24 29 29 14 8 1 3 6 10 13 19 23
25 24 25 26 31 29 29 30 31 32 33 25 9 3 3 9 8 3 3 2 6 8 6 3 2 3 10 7 6 10 6 2 2 3 5 3 3 8 17 22 22 22 21 20 20 17 11 9 6 6 9 14 20 23
26 26 26 26 29 30 29 28 29 31 29 21 10 3 7 6 4 3 4 7 7 5 5 3 4 4 6 2 3 5 3 3 3 4 2 2 3 16 27 25 22 19 16 13 8 6 4 5 11 13 15 17 21 26
27 28 27 27 27 30 28 26 26 27 25 22 9 5 4 5 3 6 1 4 3 2 6 6 8 8 7 5 4 5 2 3 3 5 3 2 2 21 26 25 22 19 16 13 11 10 9 11 15 18 21 25 29 32
30 29 27 28 27 28 27 23 22 23 25 11 3 2 3 3 6 5 2 4 3 4 3 10 9 4 4 3 6 2 4 3 5 4 1 2 12 22 23 21 19 17 16 15 16 15 15 17 19 23 24 26 28 29
31 31 28 28 27 27 27 22 18 18 13 4 3 4 3 3 2 4 4 4 3 6 12 14 5 3 3 4 3 2 2 4 3 3 3 2 17 20 19 16 15 15 15 15 16 17 19 21 21 21 23 23 24 25
29 32 30 30 29 26 24 19 16 14 4 4 3 3 4 4 4 9 10 5 4 5 10 4 1 2 3 2 2 3 6 2 3 4 2 12 17 15 14 14 12 11 10 12 13 15 17 17 19 20 19 19 19 20
31 33 35 33 30 23 21 16 15 10 5 5 7 3 3 4 5 10 14 9 6 3 2 1 2 3 2 1 3 4 3 5 3 3 8 12 13 11 11 10 9 7 6 7 9 12 13 15 16 17 16 16 16 16
28 33 34 33 24 20 17 14 6 6 7 6 7 13 16 3 8 12 14 10 8 3 2 3 3 5 1 2 3 4 5 3 4 7 7 9 10 10 10 8 6 4 3 4 6 8 10 11 12 12 15 14 14 14
38 41 37 32 28 17 16 12 6 7 8 10 6 10 19 8 8 10 14 13 9 6 5 4 5 2 4 4 4 4 9 8 9 11 10 8 7 7 7 7 5 3 1 1 2 5 7 8 9 11 11 10 9 10
35 33 35 33 19 17 5 6 8 6 11 5 9 8 12 10 11 9 13 15 12 8 5 6 3 4 4 9 8 9 9 10 9 9 8 7 4 5 5 5 4 3 2 1 2 3 5 7 8 7 7 6 6 7
26 30 29 33 22 14 7 6 8 6 5 8 8 11 7 5 11 12 14 15 14 7 5 4 6 9 9 10 9 9 9 9 8 7 5 5 3 4 5 5 5 4 3 3 3 2 3 5 6 6 5 5 4 4
24 37 27 29 30 22 8 8 10 5 6 6 8 10 5 7 8 11 12 16 11 7 8 17 18 14 13 11 10 9 9 8 7 8 7 7 5 5 5 5 5 5 5 6 5 3 3 3 4 4 4 3 2 3
30 37 33 33 13 12 11 12 6 9 7 5 11 8 4 5 6 8 10 14 9 12 14 13 15 17 15 12 9 9 9 8 8 7 9 10 10 8 8 6 5 6 7 7 7 6 4 3 2 2 2 2 1 1
30 31 17 14 11 11 3 12 6 8 3 9 9 4 3 4 5 10 6 10 11 15 19 18 13 13 12 12 11 11 10 9 8 7 8 9 8 8 8 7 7 7 8 8 8 7 6 4 4 3 3 2 3 3
26 20 12 13 10 5 8 5 5 6 5 5 4 4 4 6 9 4 4 6 10 12 19 19 17 15 14 14 13 11 10 10 8 7 7 7 7 7 7 7 7 8 8 9 8 7 6 6 5 4 4 4 4 5
8 10 8 4 6 7 4 4 4 3 3 4 5 3 4 7 3 3 4 5 14 18 19 19 17 14 12 10 12 13 12 10 9 8 8 8 8 8 8 7 6 6 7 8 8 7 7 7 6 6 6 6 6 8
6 10 8 10 6 7 7 7 7 6 4 4 4 6 5 3 3 6 4 4 11 20 22 21 18 17 15 13 13 13 11 10 9 9 9 9 9 10 10 8 7 7 7 7 7 6 6 6 6 6 6 8 9 10
6 6 6 8 9 9 5 4 8 4 6 6 4 6 4 4 6 4 4 4 6 11 15 13 12 10 8 11 12 11 11 10 9 11 10 10 10 10 10 10 9 8 8 7 6 6 6 6 6 7 7 7 8 12
2 8 6 13 5 7 4 4 6 7 4 8 14 6 6 5 2 2 3 7 8 12 15 15 14 12 11 11 11 11 10 10 10 11 11 10 10 10 10 10 11 10 10 8 6 7 7 7 7 6 9 12 13 13
3 8 9 4 4 4 4 2 4 5 6 11 4 3 3 3 4 4 4 8 10 12 14 14 12 10 10 10 10 10 9 9 9 10 9 8 7 7 7 8 10 12 10 8 7 8 8 8 10 11 16 17 18 19
2 5 4 2 2 2 2 2 2 4 5 8 5 4 4 3 5 5 6 9 11 11 11 9 8 8 9 9 9 8 7 7 8 8 8 7 7 7 7 7 8 9 9 7 7 7 9 9 10 13 15 17 17 18
3 2 4 5 3 2 4 6 6 6 5 4 4 4 4 3 4 5 8 11 13 12 11 9 9 9 10 9 8 6 6 7 7 6 7 7 7 7 7 7 8 10 9 8 8 9 10 11 12 14 14 14 13 15
4 5 3 2 2 4 4 2 2 3 3 2 3 3 2 1 2 2 5 11 14 13 10 10 9 9 8 9 8 7 6 6 6 5 5 6 8 9 8 8 6 9 14 15 16 16 15 15 15 16 16 15 14 14
3 6 6 5 3 1 2 2 2 3 4 3 3 2 0 1 2 2 3 4 7 11 10 8 10 8 7 8 7 7 6 6 5 5 6 6 5 6 7 10 15 18 17 16 16 16 15 16 19 18 17 16 14 13
Wind_Direction
360 2 5 9 6 4 359 2 2 3 2 3 6 11 11 14 13 18 39 10 344 294 294 286 312 305 332 357 338 317 333 7 315 6 343 335 296 233 277 236 184 191 184 189 166 149 257 24 307 179 255 332 342 313
355 355 358 0 4 3 360 2 4 3 3 4 5 11 14 7 358 14 15 13 337 270 275 305 326 316 334 344 328 319 274 286 325 345 356 322 310 333 329 238 24 255 326 198 186 152 5 8 355 334 328 305 311 305
355 352 351 353 358 1 1 359 3 3 2 3 1 1 2 0 1 1 5 4 7 322 302 306 6 356 349 348 327 296 279 312 295 305 285 267 292 353 354 26 291 359 16 353 265 15 347 9 16 358 340 324 313 292
348 351 350 348 351 355 358 358 360 1 1 360 359 357 359 359 3 38 6 1 7 344 300 283 321 343 336 344 340 295 287 299 301 297 226 251 310 20 7 32 55 335 325 331 319 10 346 9 353 346 335 336 303 186
345 343 347 347 347 349 353 356 356 359 358 356 357 354 1 5 359 4 355 352 358 13 284 298 324 309 311 328 347 332 307 300 291 292 248 342 34 357 78 85 46 352 2 347 288 316 308 301 320 330 330 339 58 177
336 343 340 344 345 345 348 351 353 356 357 353 353 352 0 5 5 13 323 340 346 0 347 307 314 300 333 348 1 7 356 328 298 292 16 56 37 357 31 66 35 347 330 311 282 300 305 301 310 315 305 303 189 163
322 334 339 337 342 342 344 347 350 352 354 351 350 350 353 10 13 39 29 339 349 12 12 318 338 341 338 353 350 350 4 339 351 26 46 49 14 37 52 5 330 329 326 326 328 331 308 329 323 322 271 210 172 150
311 320 332 336 335 340 340 343 346 350 351 350 347 348 351 11 11 17 24 19 14 34 44 56 305 331 350 338 333 345 319 326 36 72 53 62 37 30 56 334 328 331 334 334 336 342 316 291 271 176 169 172 150 135
304 309 317 333 333 335 335 339 343 346 349 349 343 347 330 3 2 345 8 23 30 53 89 70 12 306 333 333 315 320 319 336 23 62 63 78 30 40 326 326 329 336 333 323 329 330 330 11 128 137 147 145 144 136
300 303 306 318 333 331 331 336 340 343 345 352 350 355 17 339 336 2 19 1 33 36 48 88 284 292 317 326 307 336 320 302 355 68 88 66 109 355 340 343 343 343 342 343 357 349 356 38 65 112 130 144 146 144
295 299 301 306 320 329 326 330 336 340 347 353 343 336 334 336 357 46 54 39 358 26 10 357 323 313 338 328 294 309 309 293 352 7 64 59 13 346 348 354 356 359 359 3 11 23 39 102 98 110 121 134 138 139
291 294 298 299 304 322 320 324 332 337 340 330 322 307 342 11 35 73 326 351 48 284 334 349 332 316 304 304 285 303 295 339 9 7 59 28 281 342 350 354 1 9 18 28 40 57 81 106 109 116 121 127 129 130
288 289 292 295 298 311 313 317 324 328 331 324 320 301 9 7 38 89 335 314 350 325 309 324 325 310 314 291 283 318 4 323 323 39 42 206 337 348 350 353 4 16 31 45 57 68 82 92 106 109 109 113 118 119
286 286 289 290 290 297 302 308 314 326 332 295 308 314 111 314 232 182 179 181 201 262 299 321 297 334 324 341 297 21 285 43 46 26 265 281 348 342 347 354 4 18 32 48 60 69 76 82 87 93 98 104 109 109
286 284 284 283 281 294 293 294 304 316 291 262 225 243 210 179 168 174 179 183 205 280 311 314 285 334 317 360 25 349 8 333 197 230 247 337 336 336 344 353 1 16 33 48 62 70 76 81 84 87 88 94 100 108
283 281 279 281 280 279 271 275 293 300 231 230 226 152 170 162 202 192 201 204 207 279 355 64 85 40 333 118 25 216 123 233 247 234 310 314 328 335 339 343 350 3 29 52 64 73 82 83 84 87 93 94 98 105
286 264 286 280 262 279 261 261 279 229 225 222 229 217 190 189 206 205 202 192 190 173 156 118 60 229 331 18 288 197 208 214 220 282 294 309 309 321 327 331 333 343 25 63 77 85 87 90 93 101 97 92 96 98
268 273 272 266 261 267 247 245 225 235 239 218 209 209 198 199 194 191 195 188 178 186 164 200 139 110 200 193 241 227 218 242 268 281 280 296 301 307 310 312 313 306 306 83 87 96 101 106 105 96 97 92 93 95
270 275 270 253 258 225 218 222 216 247 225 206 209 196 192 206 213 213 200 191 192 183 175 167 116 205 226 214 217 210 233 259 275 276 264 262 296 312 299 293 291 275 252 205 156 137 122 116 108 106 106 103 95 97
256 257 259 247 240 213 214 221 212 243 212 193 186 181 183 188 201 202 196 190 182 180 183 196 217 214 211 227 230 249 257 257 265 270 259 222 282 311 299 283 269 253 217 179 151 173 144 135 130 118 117 115 108 113
248 229 223 214 204 206 212 212 207 212 187 183 176 167 174 179 196 195 202 198 192 219 231 225 229 229 227 237 249 254 247 247 251 249 236 235 282 302 295 278 259 235 218 206 190 176 189 158 143 140 132 129 124 115
226 216 202 194 192 198 227 204 191 175 170 158 164 182 166 185 196 200 194 196 230 229 216 227 232 220 220 234 242 236 233 235 244 251 243 256 263 276 275 267 255 233 225 224 222 222 208 186 172 182 175 177 190 187
224 207 188 175 189 206 210 172 165 178 156 174 162 179 208 195 190 170 231 230 240 230 224 220 208 201 210 222 224 221 223 229 236 244 243 252 255 256 255 253 245 239 234 229 225 222 220 222 228 245 230 232 250 264
208 175 172 185 192 130 148 177 173 163 137 168 172 198 196 173 164 199 253 244 225 212 206 204 199 198 206 213 215 216 217 220 226 235 242 249 249 246 253 256 248 240 233 229 227 226 230 238 251 254 255 263 265 269
170 190 190 142 151 125 145 155 182 193 190 177 178 188 176 165 182 222 235 252 214 203 195 191 197 206 214 208 206 210 217 219 224 233 240 247 248 245 249 251 246 232 223 220 223 231 242 251 257 264 269 269 269 276
201 191 193 163 157 166 170 159 189 185 151 168 194 138 157 171 202 239 229 234 216 200 193 194 197 198 204 208 213 213 213 218 228 239 248 252 251 248 242 240 240 235 227 223 229 239 246 254 262 268 271 274 273 275
195 180 166 162 160 145 141 131 150 159 178 183 165 166 162 205 231 245 227 205 194 193 192 192 196 199 202 210 213 213 219 228 240 249 256 255 250 243 238 239 240 233 228 227 237 249 257 264 273 277 274 267 270 279
153 165 165 165 144 167 142 171 178 187 171 167 143 182 189 207 243 180 185 175 172 174 177 183 188 196 210 214 214 222 230 240 249 255 254 252 249 246 241 236 229 217 223 231 248 259 272 281 288 289 288 284 286 289
71 128 127 117 137 178 176 189 191 169 154 172 174 170 180 182 162 159 161 175 177 179 187 190 197 213 220 224 227 234 242 246 247 246 246 246 240 233 227 225 222 218 231 244 249 260 274 289 310 308 288 293 296 296
103 144 96 111 139 123 37 77 113 133 147 156 136 128 131 141 174 176 180 187 185 183 189 203 217 224 226 224 224 226 234 240 238 239 240 233 229 232 229 217 212 225 237 248 259 268 275 275 284 289 289 290 290 290
77 85 78 58 73 49 104 108 110 116 123 122 120 125 133 143 176 193 193 195 196 203 215 227 229 227 217 214 212 223 237 235 226 230 233 230 224 218 220 223 235 238 245 261 275 282 275 283 299 307 306 302 296 291
45 47 101 98 80 114 103 78 85 80 77 85 62 88 112 138 217 227 231 227 227 228 228 227 221 208 215 215 214 229 238 229 217 225 231 234 233 232 237 228 266 268 258 265 275 284 282 286 301 308 306 304 298 293
73 67 80 94 97 75 99 104 68 77 59 65 47 43 52 246 256 259 265 245 224 203 211 207 204 210 209 207 219 224 220 223 234 245 247 246 253 265 270 278 282 283 277 268 269 273 277 288 298 301 302 299 297 295
Height
1572 1567 1562 1557 1551 1546 1542 1535 1528 1521 1514 1507 1501 1496 1493 1489 1486 1483 1482 1481 1481 1478 1473 1471 1470 1468 1466 1464 1459 1451 1441 1438 1432 1428 1426 1417 1399 1389 1395 1390 1382 1380 1385 1385 1391 1393 1396 1389 1383 1389 1383 1379 1381 1380
1572 1567 1563 1557 1550 1546 1541 1535 1528 1521 1514 1507 1501 1497 1494 1490 1488 1484 1482 1481 1478 1477 1472 1469 1467 1466 1466 1466 1462 1455 1452 1447 1443 1440 1438 1432 1419 1404 1395 1391 1389 1387 1401 1387 1385 1388 1394 1394 1393 1392 1389 1384 1382 1379
1570 1566 1561 1557 1551 1545 1539 1534 1528 1520 1514 1507 1501 1496 1493 1490 1486 1485 1484 1481 1476 1472 1470 1468 1468 1466 1465 1463 1461 1459 1449 1446 1444 1443 1440 1434 1421 1416 1409 1408 1407 1411 1410 1399 1388 1396 1398 1397 1394 1395 1391 1385 1380 1376
1569 1565 1559 1555 1550 1544 1538 1533 1527 1521 1512 1506 1501 1496 1492 1489 1486 1483 1483 1481 1478 1475 1475 1469 1467 1465 1464 1460 1456 1451 1446 1444 1441 1438 1437 1434 1426 1426 1419 1429 1437 1444 1430 1427 1402 1405 1399 1396 1399 1399 1394 1388 1382 1377
1567 1564 1559 1553 1548 1543 1537 1532 1526 1520 1512 1505 1499 1496 1494 1490 1487 1485 1483 1481 1478 1480 1477 1469 1465 1464 1461 1457 1449 1445 1444 1442 1439 1436 1432 1433 1433 1434 1432 1440 1453 1457 1452 1449 1435 1428 1427 1415 1408 1403 1398 1391 1387 1381
1564 1561 1557 1552 1546 1541 1536 1530 1524 1518 1512 1504 1498 1494 1493 1490 1487 1485 1483 1482 1480 1476 1475 1473 1466 1462 1459 1452 1447 1445 1442 1440 1439 1437 1436 1437 1441 1441 1439 1449 1457 1457 1455 1453 1443 1431 1424 1414 1409 1404 1400 1396 1392 1388
1561 1558 1554 1549 1543 1539 1534 1528 1522 1517 1510 1503 1497 1494 1493 1491 1489 1487 1488 1485 1479 1477 1477 1474 1468 1463 1458 1451 1446 1444 1442 1440 1440 1439 1441 1444 1446 1446 1455 1464 1461 1457 1452 1442 1437 1429 1417 1414 1410 1405 1402 1397 1395 1392
1556 1554 1551 1546 1540 1535 1531 1526 1520 1514 1509 1501 1497 1493 1491 1490 1490 1490 1487 1485 1481 1479 1479 1486 1482 1472 1464 1459 1452 1449 1444 1441 1441 1442 1446 1450 1457 1462 1467 1469 1463 1456 1447 1438 1433 1426 1420 1415 1410 1406 1403 1399 1398 1398
1551 1549 1546 1543 1538 1533 1528 1524 1518 1512 1506 1500 1494 1491 1492 1490 1488 1489 1487 1484 1483 1484 1484 1492 1499 1491 1473 1468 1462 1456 1451 1448 1445 1448 1452 1455 1469 1476 1478 1472 1463 1455 1451 1440 1428 1424 1422 1417 1412 1409 1406 1404 1404 1404
1546 1544 1542 1540 1535 1530 1526 1521 1515 1511 1504 1497 1494 1493 1491 1491 1489 1488 1488 1488 1486 1489 1492 1495 1496 1494 1488 1479 1469 1465 1457 1455 1450 1452 1454 1463 1479 1482 1478 1473 1466 1458 1450 1441 1432 1429 1424 1416 1414 1412 1410 1410 1408 1409
1539 1537 1536 1534 1531 1527 1523 1518 1513 1509 1503 1498 1494 1493 1493 1491 1490 1487 1489 1492 1496 1498 1496 1496 1495 1493 1487 1487 1481 1474 1467 1459 1455 1457 1458 1470 1477 1478 1473 1469 1463 1457 1450 1443 1437 1430 1424 1422 1418 1417 1415 1415 1414 1414
1533 1531 1529 1528 1526 1523 1519 1515 1510 1507 1503 1500 1496 1492 1491 1491 1492 1493 1505 1499 1501 1504 1499 1496 1494 1492 1489 1487 1482 1474 1471 1465 1463 1465 1472 1479 1480 1476 1471 1466 1460 1454 1448 1443 1438 1433 1429 1425 1421 1420 1421 1421 1420 1422
1525 1523 1522 1520 1520 1518 1515 1513 1509 1506 1501 1495 1495 1493 1490 1492 1499 1505 1512 1508 1507 1501 1498 1497 1495 1491 1490 1489 1484 1480 1479 1473 1469 1479 1482 1485 1480 1476 1471 1466 1461 1456 1451 1446 1441 1438 1433 1430 1429 1428 1429 1428 1429 1431
1517 1515 1515 1514 1513 1512 1510 1508 1506 1503 1500 1497 1493 1493 1496 1500 1498 1497 1498 1497 1497 1498 1498 1496 1494 1492 1490 1489 1486 1486 1478 1478 1491 1496 1487 1482 1479 1475 1471 1468 1463 1459 1456 1452 1449 1446 1443 1440 1439 1439 1437 1437 1438 1439
1508 1506 1506 1505 1505 1505 1504 1503 1501 1501 1500 1496 1493 1490 1493 1486 1487 1489 1491 1493 1493 1495 1495 1495 1495 1494 1491 1492 1490 1489 1491 1503 1496 1490 1483 1480 1478 1475 1472 1469 1466 1463 1460 1458 1455 1452 1450 1449 1447 1446 1446 1446 1447 1448
1500 1496 1495 1496 1497 1496 1496 1496 1497 1497 1493 1491 1487 1484 1485 1487 1487 1487 1488 1489 1490 1491 1492 1495 1496 1499 1497 1497 1497 1501 1505 1499 1486 1481 1480 1478 1476 1474 1472 1469 1467 1465 1463 1461 1459 1457 1455 1454 1453 1453 1453 1454 1455 1455
1490 1483 1487 1487 1489 1489 1489 1490 1490 1489 1484 1481 1476 1473 1476 1476 1478 1481 1483 1485 1488 1490 1492 1493 1500 1498 1497 1503 1500 1491 1490 1479 1477 1478 1477 1476 1474 1473 1471 1470 1468 1467 1465 1464 1463 1461 1460 1459 1458 1458 1458 1459 1460 1460
1476 1474 1478 1478 1479 1482 1482 1484 1484 1480 1473 1470 1471 1469 1471 1472 1474 1477 1479 1481 1485 1487 1488 1491 1491 1497 1499 1500 1486 1474 1472 1473 1473 1473 1473 1473 1472 1471 1470 1469 1468 1467 1466 1465 1465 1463 1462 1462 1461 1461 1462 1462 1463 1463
1466 1465 1469 1469 1475 1479 1478 1477 1477 1469 1464 1465 1464 1466 1468 1469 1471 1473 1475 1477 1480 1483 1485 1486 1491 1490 1478 1470 1467 1467 1468 1468 1469 1470 1470 1470 1470 1469 1468 1468 1468 1467 1467 1466 1466 1465 1464 1463 1463 1463 1463 1464 1465 1465
1456 1453 1457 1459 1465 1471 1471 1468 1468 1463 1460 1459 1460 1462 1464 1465 1468 1471 1473 1474 1476 1479 1479 1478 1469 1461 1461 1461 1462 1463 1464 1464 1465 1466 1467 1467 1467 1466 1466 1466 1466 1466 1466 1466 1466 1466 1465 1465 1464 1465 1465 1466 1466 1466
1446 1443 1449 1451 1455 1460 1460 1457 1458 1458 1456 1457 1457 1460 1461 1463 1465 1466 1469 1471 1473 1467 1461 1454 1452 1454 1456 1457 1458 1459 1460 1460 1461 1463 1464 1465 1465 1464 1464 1464 1464 1464 1465 1466 1466 1466 1466 1465 1465 1465 1465 1466 1466 1466
1432 1435 1438 1443 1447 1451 1449 1447 1450 1453 1456 1454 1457 1458 1458 1460 1460 1462 1464 1465 1457 1446 1446 1444 1446 1448 1451 1452 1454 1455 1456 1457 1458 1460 1461 1462 1462 1462 1462 1462 1462 1462 1463 1464 1464 1465 1465 1465 1464 1464 1464 1464 1465 1465
1424 1429 1434 1437 1441 1441 1444 1445 1447 1449 1451 1452 1454 1456 1455 1455 1455 1458 1457 1448 1439 1435 1436 1439 1441 1444 1447 1449 1450 1451 1453 1454 1455 1457 1458 1459 1459 1459 1459 1460 1460 1460 1461 1462 1462 1463 1464 1464 1463 1463 1463 1463 1464 1464
1415 1420 1424 1426 1428 1437 1442 1443 1445 1446 1448 1448 1449 1449 1450 1451 1452 1453 1448 1434 1427 1428 1430 1433 1437 1440 1443 1445 1447 1448 1450 1451 1453 1454 1456 1456 1456 1457 1457 1457 1457 1458 1458 1459 1460 1461 1462 1462 1462 1462 1462 1462 1462 1462
1415 1417 1417 1420 1423 1429 1435 1440 1440 1442 1440 1442 1443 1443 1445 1447 1447 1447 1439 1423 1421 1423 1426 1430 1434 1437 1439 1442 1444 1445 1447 1448 1450 1452 1453 1453 1454 1454 1454 1455 1455 1455 1456 1457 1458 1459 1460 1460 1459 1459 1459 1460 1460 1459
1403 1405 1407 1407 1416 1418 1423 1429 1432 1431 1432 1435 1435 1438 1440 1441 1441 1432 1423 1417 1417 1420 1422 1425 1429 1433 1436 1438 1441 1442 1444 1445 1447 1449 1450 1450 1450 1451 1451 1452 1453 1454 1454 1455 1456 1457 1457 1457 1457 1457 1457 1457 1457 1456
1394 1398 1400 1402 1405 1409 1415 1417 1418 1420 1423 1424 1429 1434 1435 1434 1427 1418 1415 1415 1417 1419 1423 1427 1430 1433 1435 1437 1439 1440 1442 1443 1444 1446 1447 1447 1447 1447 1448 1450 1450 1451 1452 1453 1453 1454 1455 1455 1455 1454 1454 1454 1453 1452
1388 1390 1393 1398 1401 1403 1406 1409 1410 1410 1411 1414 1420 1423 1421 1417 1415 1416 1415 1416 1417 1420 1423 1427 1430 1432 1433 1435 1436 1438 1439 1439 1441 1442 1443 1443 1443 1444 1445 1446 1447 1448 1449 1450 1451 1451 1451 1452 1451 1451 1450 1449 1449 1448
1390 1392 1393 1397 1401 1401 1401 1403 1403 1404 1406 1408 1409 1410 1413 1414 1415 1415 1416 1417 1419 1421 1424 1426 1428 1430 1431 1432 1434 1434 1435 1436 1438 1439 1439 1440 1440 1441 1442 1443 1444 1445 1446 1447 1448 1448 1448 1449 1448 1447 1445 1445 1444 1443
1392 1392 1394 1396 1397 1399 1403 1404 1404 1405 1406 1407 1408 1411 1412 1413 1415 1416 1417 1418 1420 1422 1424 1426 1427 1428 1429 1430 1431 1431 1432 1434 1435 1436 1436 1437 1438 1439 1439 1440 1441 1442 1443 1444 1445 1445 1445 1445 1445 1444 1442 1440 1439 1437
1394 1394 1396 1400 1404 1405 1405 1405 1406 1407 1407 1408 1409 1411 1412 1414 1416 1416 1417 1418 1419 1421 1423 1424 1425 1426 1427 1428 1429 1429 1431 1432 1432 1433 1433 1434 1435 1436 1437 1438 1439 1440 1441 1441 1442 1442 1441 1441 1440 1438 1437 1435 1434 1432
1397 1398 1400 1403 1407 1407 1407 1408 1408 1408 1409 1410 1411 1412 1414 1415 1416 1416 1415 1416 1418 1419 1421 1422 1423 1424 1425 1426 1427 1428 1429 1430 1431 1431 1432 1433 1433 1434 1435 1436 1436 1437 1437 1437 1437 1437 1436 1436 1435 1434 1432 1430 1429 1427
1401 1401 1402 1404 1408 1409 1409 1410 1410 1411 1411 1413 1414 1414 1414 1415 1415 1415 1415 1414 1416 1417 1418 1420 1421 1422 1423 1424 1426 1427 1428 1428 1429 1429 1430 1430 1431 1432 1433 1433 1433 1432 1432 1432 1431 1431 1431 1430 1429 1427 1426 1424 1423 1422